{"data":{"norad_id":58876,"intl_designator":"2024-020A","name":"STARLINK-31306","alt_names":[],"object_type":"PAYLOAD","status":"ACTIVE","operator":null,"country":"US","launch_date":"2024-01-29","launch_site_code":"AFWTR","launch_vehicle":null,"mission":null,"orbit_class":"UNKNOWN","rcs_meters":null,"size_class":null,"mass_kg":null,"dimensions":null,"purposes":["comms"],"wikipedia_slug":null,"has_3d_model":false,"image_url":null,"decayed_at":null,"tle_current":{"epoch":"2026-05-24T18:37:08.651712Z","epoch_age_seconds":90925,"freshness":"FRESH","line1":"1 58876U 24020A   26144.77579458  .00003044  00000+0  11490-3 0  9999","line2":"2 58876  53.1608 328.7696 0001257  80.8972 279.2171 15.30191013130905","mean_motion":15.30191013,"eccentricity":0.0001257,"inclination_deg":53.1608,"raan_deg":328.7696,"arg_perigee_deg":80.8972,"mean_anomaly_deg":279.2171,"bstar":0.0001149,"rev_number":13090,"period_min":94.105898398712,"perigee_km":474.38043338462,"apogee_km":476.10337284086,"semimajor_km":6853.3789031127,"source":"CELESTRAK","updated_at":"2026-05-25T13:38:18.781861Z"}}}